UAL155 PTSA-PKWA

Flight info

Callsign UAL155
Flight time 0h 57m
Altitude 35000
Route UKS STEFF
Aircraft B738/M-SDE2E3FGHIRWXY/LB1

Departure

Time 2026-04-21 03:33
Airport Kosrae International Airport (PTSA)

Arrival

Time 2026-04-21 04:31
Airport Bucholz Army Air Field (PKWA)
Time Latitude Longitude Altitude Speed Heading
2026-04-21 03:20 5.35367 162.95577 14 ft 0 kts 216°
2026-04-21 03:30 5.35368 162.95565 14 ft 4 kts 301°
2026-04-21 03:30 5.35446 162.95539 15 ft 19 kts 358°
2026-04-21 03:30 5.35550 162.95640 13 ft 28 kts 57°
2026-04-21 03:31 5.35684 162.95844 14 ft 40 kts 56°
2026-04-21 03:31 5.35837 162.96072 16 ft 38 kts 56°
2026-04-21 03:31 5.35982 162.96282 17 ft 36 kts 54°
2026-04-21 03:31 5.36088 162.96439 17 ft 5 kts 43°
2026-04-21 03:32 5.36090 162.96424 17 ft 6 kts 257°
2026-04-21 03:32 5.36079 162.96399 17 ft 0 kts 237°
2026-04-21 03:32 5.36053 162.96361 18 ft 33 kts 236°
2026-04-21 03:32 5.35761 162.95932 15 ft 112 kts 236°
2026-04-21 03:33 5.35217 162.95130 244 ft 155 kts 236°
2026-04-21 03:33 5.34670 162.94151 857 ft 172 kts 254°
2026-04-21 03:33 5.34885 162.92981 1673 ft 184 kts 307°
2026-04-21 03:33 5.36053 162.92388 2415 ft 204 kts 355°
2026-04-21 03:34 5.37405 162.92796 3230 ft 211 kts 39°
2026-04-21 03:34 5.38204 162.94030 3838 ft 219 kts 81°
2026-04-21 03:34 5.38277 162.95194 4220 ft 226 kts 94°
2026-04-21 03:34 5.38246 162.96810 4907 ft 234 kts 93°
2026-04-21 03:35 5.38278 162.98487 5514 ft 253 kts 86°
2026-04-21 03:35 5.38719 163.00299 5878 ft 279 kts 68°
2026-04-21 03:35 5.39705 163.02004 6667 ft 286 kts 56°
2026-04-21 03:35 5.40891 163.03618 7529 ft 289 kts 54°
2026-04-21 03:36 5.42123 163.05227 8352 ft 293 kts 54°
2026-04-21 03:36 5.43364 163.06857 9218 ft 295 kts 54°
2026-04-21 03:36 5.44606 163.08509 10061 ft 298 kts 54°
2026-04-21 03:36 5.45881 163.10231 10436 ft 319 kts 55°
2026-04-21 03:37 5.47242 163.12092 10709 ft 340 kts 55°
2026-04-21 03:37 5.48652 163.14034 11358 ft 347 kts 56°
2026-04-21 03:37 5.50071 163.16000 12236 ft 349 kts 56°
2026-04-21 03:37 5.51495 163.17980 13159 ft 352 kts 55°
2026-04-21 03:38 5.52943 163.20002 14084 ft 360 kts 56°
2026-04-21 03:38 5.54410 163.22056 14960 ft 364 kts 56°
2026-04-21 03:38 5.55893 163.24134 15723 ft 368 kts 56°
2026-04-21 03:38 5.57387 163.26228 16370 ft 371 kts 56°
2026-04-21 03:39 5.58895 163.28342 16984 ft 374 kts 56°
2026-04-21 03:39 5.60416 163.30475 17582 ft 378 kts 56°
2026-04-21 03:39 5.61954 163.32632 18172 ft 381 kts 56°
2026-04-21 03:39 5.63503 163.34806 18688 ft 384 kts 56°
2026-04-21 03:40 5.65064 163.36996 19214 ft 387 kts 56°
2026-04-21 03:40 5.66635 163.39201 19741 ft 389 kts 56°
2026-04-21 03:40 5.68193 163.41388 20251 ft 392 kts 56°
2026-04-21 03:40 5.69784 163.43621 20750 ft 395 kts 55°
2026-04-21 03:41 5.71388 163.45874 21230 ft 398 kts 56°
2026-04-21 03:41 5.73001 163.48139 21729 ft 401 kts 55°
2026-04-21 03:41 5.74628 163.50424 22204 ft 403 kts 56°
2026-04-21 03:41 5.76265 163.52723 22697 ft 406 kts 55°
2026-04-21 03:42 5.77912 163.55037 23147 ft 409 kts 55°
2026-04-21 03:42 5.79570 163.57365 23578 ft 411 kts 55°
2026-04-21 03:42 5.81239 163.59711 23956 ft 414 kts 55°
2026-04-21 03:42 5.82916 163.62067 24352 ft 415 kts 55°
2026-04-21 03:43 5.84596 163.64429 24749 ft 417 kts 55°
2026-04-21 03:43 5.86290 163.66809 25106 ft 420 kts 55°
2026-04-21 03:43 5.87991 163.69200 25474 ft 422 kts 55°
2026-04-21 03:43 5.89701 163.71604 25822 ft 424 kts 55°
2026-04-21 03:44 5.91419 163.74019 26217 ft 426 kts 55°
2026-04-21 03:44 5.93145 163.76446 26554 ft 428 kts 54°
2026-04-21 03:44 5.94881 163.78888 26920 ft 430 kts 54°
2026-04-21 03:44 5.96622 163.81337 27255 ft 433 kts 54°
2026-04-21 03:45 5.98376 163.83804 27618 ft 434 kts 54°
2026-04-21 03:45 6.00127 163.86268 27949 ft 436 kts 54°
2026-04-21 03:45 6.01900 163.88763 28266 ft 439 kts 54°
2026-04-21 03:45 6.03676 163.91262 28598 ft 441 kts 54°
2026-04-21 03:46 6.05464 163.93779 28880 ft 443 kts 54°
2026-04-21 03:46 6.07258 163.96304 29217 ft 445 kts 54°
2026-04-21 03:46 6.09060 163.98841 29500 ft 447 kts 54°
2026-04-21 03:46 6.10871 164.01391 29819 ft 449 kts 54°
2026-04-21 03:47 6.12690 164.03952 30079 ft 451 kts 54°
2026-04-21 03:47 6.14510 164.06516 30425 ft 450 kts 54°
2026-04-21 03:47 6.16325 164.09073 30831 ft 448 kts 54°
2026-04-21 03:47 6.18129 164.11614 31230 ft 446 kts 54°
2026-04-21 03:48 6.19930 164.14152 31593 ft 445 kts 54°
2026-04-21 03:48 6.21726 164.16683 31964 ft 444 kts 54°
2026-04-21 03:48 6.23517 164.19207 32346 ft 443 kts 53°
2026-04-21 03:48 6.25306 164.21729 32716 ft 442 kts 53°
2026-04-21 03:49 6.27088 164.24242 33112 ft 441 kts 53°
2026-04-21 03:49 6.28864 164.26745 33495 ft 439 kts 53°
2026-04-21 03:49 6.30611 164.29209 33873 ft 438 kts 53°
2026-04-21 03:49 6.32377 164.31700 34181 ft 438 kts 53°
2026-04-21 03:50 6.34145 164.34194 34455 ft 438 kts 53°
2026-04-21 03:50 6.35912 164.36686 34731 ft 438 kts 53°
2026-04-21 03:50 6.37681 164.39182 34868 ft 441 kts 53°
2026-04-21 03:50 6.39470 164.41706 34868 ft 444 kts 53°
2026-04-21 03:51 6.43048 164.46756 34857 ft 440 kts 53°
2026-04-21 03:51 6.46001 164.50927 34865 ft 436 kts 53°
2026-04-21 03:52 6.49519 164.55895 34874 ft 437 kts 53°
2026-04-21 03:52 6.53044 164.60873 34873 ft 438 kts 53°
2026-04-21 03:53 6.56579 164.65867 34871 ft 438 kts 53°
2026-04-21 03:53 6.60093 164.70834 34869 ft 439 kts 53°
2026-04-21 03:54 6.63661 164.75878 34865 ft 440 kts 53°
2026-04-21 03:54 6.67187 164.80864 34870 ft 441 kts 53°
2026-04-21 03:55 6.70739 164.85888 34869 ft 441 kts 53°
2026-04-21 03:55 6.74297 164.90923 34869 ft 442 kts 53°
2026-04-21 03:56 6.77856 164.95961 34871 ft 442 kts 53°
2026-04-21 03:56 6.81413 165.00997 34870 ft 442 kts 53°
2026-04-21 03:57 6.84972 165.06038 34870 ft 441 kts 53°
2026-04-21 03:57 6.88525 165.11071 34869 ft 441 kts 53°
2026-04-21 03:58 6.92073 165.16101 34870 ft 440 kts 53°
2026-04-21 03:58 6.95616 165.21124 34870 ft 440 kts 53°
2026-04-21 03:59 6.99159 165.26142 34871 ft 439 kts 53°
2026-04-21 04:00 7.04606 165.33558 34859 ft 439 kts 52°
2026-04-21 04:00 7.08257 165.38481 34874 ft 439 kts 52°
2026-04-21 04:01 7.11896 165.43408 34874 ft 439 kts 52°
2026-04-21 04:01 7.15532 165.48346 34873 ft 439 kts 52°
2026-04-21 04:02 7.19169 165.53290 34871 ft 439 kts 52°
2026-04-21 04:02 7.22807 165.58236 34875 ft 439 kts 52°
2026-04-21 04:03 7.26446 165.63186 34874 ft 440 kts 52°
2026-04-21 04:03 7.30058 165.68100 34871 ft 440 kts 52°
2026-04-21 04:04 7.33701 165.73057 34871 ft 440 kts 52°
2026-04-21 04:04 7.37341 165.78012 34873 ft 440 kts 52°
2026-04-21 04:05 7.40975 165.82960 34829 ft 436 kts 52°
2026-04-21 04:05 7.42772 165.85408 34514 ft 432 kts 52°
2026-04-21 04:05 7.44543 165.87822 34195 ft 426 kts 52°
2026-04-21 04:05 7.46299 165.90215 33827 ft 423 kts 52°
2026-04-21 04:06 7.48044 165.92592 33412 ft 421 kts 52°
2026-04-21 04:06 7.49779 165.94956 33015 ft 418 kts 52°
2026-04-21 04:06 7.51501 165.97303 32624 ft 415 kts 52°
2026-04-21 04:06 7.53211 165.99634 32244 ft 412 kts 52°
2026-04-21 04:07 7.54911 166.01951 31866 ft 410 kts 52°
2026-04-21 04:07 7.56598 166.04251 31504 ft 407 kts 53°
2026-04-21 04:07 7.58277 166.06542 31126 ft 405 kts 53°
2026-04-21 04:07 7.59944 166.08815 30760 ft 403 kts 53°
2026-04-21 04:08 7.61606 166.11082 30389 ft 401 kts 53°
2026-04-21 04:08 7.63259 166.13338 30008 ft 399 kts 53°
2026-04-21 04:08 7.64907 166.15587 29587 ft 398 kts 53°
2026-04-21 04:08 7.66545 166.17823 29183 ft 395 kts 53°
2026-04-21 04:09 7.68171 166.20042 28786 ft 392 kts 53°
2026-04-21 04:09 7.69785 166.22245 28401 ft 389 kts 53°
2026-04-21 04:09 7.71385 166.24429 28024 ft 386 kts 53°
2026-04-21 04:09 7.72976 166.26602 27647 ft 384 kts 53°
2026-04-21 04:10 7.74553 166.28757 27275 ft 381 kts 53°
2026-04-21 04:10 7.76122 166.30900 26908 ft 379 kts 53°
2026-04-21 04:10 7.77681 166.33030 26542 ft 376 kts 53°
2026-04-21 04:10 7.79232 166.35149 26172 ft 374 kts 53°
2026-04-21 04:11 7.80776 166.37259 25815 ft 373 kts 53°
2026-04-21 04:11 7.82312 166.39358 25445 ft 371 kts 53°
2026-04-21 04:11 7.83842 166.41449 25083 ft 370 kts 54°
2026-04-21 04:11 7.85366 166.43532 24707 ft 369 kts 54°
2026-04-21 04:12 7.86888 166.45614 24343 ft 368 kts 54°
2026-04-21 04:12 7.88406 166.47691 23974 ft 368 kts 54°
2026-04-21 04:12 7.89902 166.49737 23613 ft 367 kts 54°
2026-04-21 04:12 7.91416 166.51808 23208 ft 366 kts 54°
2026-04-21 04:13 7.92925 166.53872 22815 ft 364 kts 54°
2026-04-21 04:13 7.94423 166.55922 22441 ft 362 kts 54°
2026-04-21 04:13 7.95914 166.57962 22078 ft 360 kts 54°
2026-04-21 04:13 7.97396 166.59991 21720 ft 358 kts 54°
2026-04-21 04:14 7.98868 166.62006 21364 ft 356 kts 54°
2026-04-21 04:14 8.00332 166.64010 21013 ft 354 kts 54°
2026-04-21 04:14 8.01789 166.66005 20668 ft 352 kts 54°
2026-04-21 04:14 8.03237 166.67988 20312 ft 350 kts 54°
2026-04-21 04:15 8.04682 166.69967 19968 ft 349 kts 54°
2026-04-21 04:15 8.06118 166.71935 19609 ft 348 kts 54°
2026-04-21 04:15 8.07550 166.73897 19263 ft 347 kts 54°
2026-04-21 04:15 8.08980 166.75856 18902 ft 346 kts 54°
2026-04-21 04:16 8.10407 166.77812 18555 ft 345 kts 54°
2026-04-21 04:16 8.11830 166.79762 18201 ft 345 kts 54°
2026-04-21 04:16 8.13251 166.81710 17813 ft 344 kts 54°
2026-04-21 04:16 8.14665 166.83649 17452 ft 342 kts 54°
2026-04-21 04:17 8.16073 166.85579 17100 ft 340 kts 54°
2026-04-21 04:17 8.17470 166.87495 16754 ft 338 kts 54°
2026-04-21 04:17 8.18860 166.89401 16412 ft 336 kts 54°
2026-04-21 04:17 8.20244 166.91300 16075 ft 334 kts 54°
2026-04-21 04:18 8.21619 166.93186 15737 ft 333 kts 54°
2026-04-21 04:18 8.22988 166.95064 15405 ft 331 kts 54°
2026-04-21 04:18 8.24348 166.96932 15073 ft 330 kts 54°
2026-04-21 04:18 8.25706 166.98795 14734 ft 329 kts 54°
2026-04-21 04:19 8.27059 167.00652 14389 ft 328 kts 54°
2026-04-21 04:19 8.28390 167.02479 14059 ft 327 kts 54°
2026-04-21 04:19 8.29753 167.04352 13719 ft 326 kts 54°
2026-04-21 04:19 8.31097 167.06197 13351 ft 325 kts 54°
2026-04-21 04:20 8.32409 167.07999 13092 ft 321 kts 54°
2026-04-21 04:20 8.33726 167.09807 12766 ft 319 kts 54°
2026-04-21 04:20 8.35035 167.11605 12449 ft 317 kts 54°
2026-04-21 04:20 8.36333 167.13390 12128 ft 315 kts 54°
2026-04-21 04:21 8.37626 167.15166 11804 ft 313 kts 54°
2026-04-21 04:21 8.38912 167.16934 11485 ft 312 kts 54°
2026-04-21 04:21 8.40192 167.18693 11163 ft 310 kts 54°
2026-04-21 04:21 8.41467 167.20446 10846 ft 309 kts 54°
2026-04-21 04:22 8.42736 167.22190 10518 ft 308 kts 54°
2026-04-21 04:22 8.44002 167.23931 10217 ft 307 kts 54°
2026-04-21 04:22 8.45247 167.25643 10072 ft 299 kts 54°
2026-04-21 04:22 8.46472 167.27328 9805 ft 297 kts 54°
2026-04-21 04:23 8.47691 167.29004 9503 ft 295 kts 54°
2026-04-21 04:23 8.48903 167.30672 9193 ft 294 kts 54°
2026-04-21 04:23 8.50110 167.32332 8890 ft 292 kts 54°
2026-04-21 04:23 8.51310 167.33984 8591 ft 291 kts 54°
2026-04-21 04:24 8.52505 167.35628 8290 ft 290 kts 54°
2026-04-21 04:24 8.53694 167.37265 7991 ft 288 kts 54°
2026-04-21 04:24 8.54878 167.38895 7700 ft 287 kts 54°
2026-04-21 04:24 8.56058 167.40520 7408 ft 286 kts 54°
2026-04-21 04:25 8.57233 167.42138 7118 ft 285 kts 54°
2026-04-21 04:25 8.58396 167.43740 6824 ft 280 kts 54°
2026-04-21 04:25 8.59536 167.45310 6537 ft 275 kts 54°
2026-04-21 04:25 8.60657 167.46855 6252 ft 270 kts 54°
2026-04-21 04:26 8.61758 167.48372 5997 ft 264 kts 54°
2026-04-21 04:26 8.62814 167.49826 5871 ft 251 kts 53°
2026-04-21 04:26 8.63824 167.51215 5666 ft 242 kts 53°
2026-04-21 04:26 8.64790 167.52588 5305 ft 240 kts 57°
2026-04-21 04:27 8.65641 167.54047 4656 ft 248 kts 62°
2026-04-21 04:27 8.66453 167.55591 4100 ft 246 kts 65°
2026-04-21 04:27 8.67134 167.57125 3760 ft 233 kts 67°
2026-04-21 04:27 8.67651 167.58644 3335 ft 227 kts 74°
2026-04-21 04:28 8.68089 167.60166 2856 ft 223 kts 75°
2026-04-21 04:28 8.68463 167.61660 2492 ft 216 kts 76°
2026-04-21 04:28 8.68845 167.63096 2017 ft 206 kts 74°
2026-04-21 04:28 8.69291 167.64411 1748 ft 187 kts 68°
2026-04-21 04:29 8.69726 167.65573 1477 ft 170 kts 71°
2026-04-21 04:29 8.70069 167.66671 1212 ft 158 kts 75°
2026-04-21 04:29 8.70332 167.67728 929 ft 155 kts 75°
2026-04-21 04:29 8.70659 167.68764 719 ft 154 kts 72°
2026-04-21 04:30 8.70966 167.69792 553 ft 153 kts 73°
2026-04-21 04:30 8.71282 167.70819 363 ft 153 kts 72°
2026-04-21 04:30 8.71604 167.71855 138 ft 156 kts 73°
2026-04-21 04:30 8.71932 167.72895 9 ft 148 kts 72°
2026-04-21 04:31 8.72133 167.73554 10 ft 47 kts 72°
2026-04-21 04:31 8.72176 167.73687 10 ft 19 kts 72°
2026-04-21 04:31 8.72220 167.73827 9 ft 23 kts 73°
2026-04-21 04:31 8.72287 167.73974 9 ft 23 kts 27°
2026-04-21 04:32 8.72431 167.73945 9 ft 22 kts 343°
2026-04-21 04:32 8.72583 167.73923 9 ft 18 kts 46°
2026-04-21 04:32 8.72582 167.74051 9 ft 20 kts 89°
2026-04-21 04:32 8.72598 167.74128 10 ft 9 kts 36°
2026-04-21 04:33 8.72645 167.74152 9 ft 7 kts 26°
2026-04-21 04:33 8.72666 167.74161 9 ft 0 kts 25°